Flag for U.S.A. Weather past 2 weeks in Ontario, Oregon, U.S.A.

Now
52 °F

Clear.


Feels Like: 52 °F
Forecast: 47 / 85 °F
Wind: 3 mph from West

Location: Ontario Municipal Airport

Current Time: Sep 2, 2014 at 3:33:17 AM

Latest Report: Sep 2, 2014 at 2:53 AM


Visibility: 10 mi

Pressure: 29.94 "Hg

Humidity: 66%

Dew point: 41 °F

Location of OntarioLocation

Historic Weather in Ontario — Graph

°F

Ontario temperature yesterday

Maximum temperature yesterday: 79 °F (at 4:53 PM)
Minimum temperature yesterday: 56 °F (at 6:53 AM)
Average temperature yesterday: 66 °F

Past Weeks' High & Low Weather Summary

 TemperatureHumidityPressure
High98 °F (Aug 18, 5:53 PM)83% (Aug 26, 5:53 AM)30.12 "Hg (Aug 26, 5:53 AM)
Low51 °F (Aug 26, 6:53 AM)10% (Aug 18, 5:53 PM)29.61 "Hg (Aug 19, 4:53 PM)
Average71 °F44%29.90 "Hg
* Reported Aug 18 1:53 AM — Sep 2 1:53 AM, Ontario, Weather by CustomWeather, © 2014

Note: Actual official high and low records may vary slightly from our data, if they occured in-between our weather recording intervals... More about our weather records

Advertising

Ontario weather history for previous 24 hours

 ConditionsComfort  
Time TempWeatherWind HumidityBarometerVisibility
1:53 AM
Sep 2
54 °FClear.No wind64%29.95 "Hg10 mi
12:53 AM54 °FClear.3 mph69%29.96 "Hg10 mi
11:53 PM
Sep 1
56 °FClear.No wind65%29.96 "Hg10 mi
10:53 PM59 °FClear.No wind64%29.95 "Hg10 mi
9:53 PM62 °FClear.No wind58%29.95 "Hg10 mi
8:53 PM68 °FSunny.No wind44%29.94 "Hg10 mi
7:53 PM73 °FSunny.3 mph38%29.94 "Hg10 mi
6:53 PM79 °FSunny.3 mph24%29.95 "Hg10 mi
5:53 PM79 °FSunny.3 mph26%29.97 "Hg10 mi
4:53 PM79 °FSunny.No wind25%29.98 "Hg10 mi
3:53 PM77 °FSunny.No wind26%30.00 "Hg10 mi
2:53 PM75 °FSunny.6 mph27%30.01 "Hg10 mi
1:53 PM73 °FSunny.5 mph32%30.04 "Hg10 mi
12:53 PM71 °FSunny.No wind34%30.06 "Hg10 mi
11:53 AM71 °FSunny.7 mph34%30.08 "Hg10 mi
10:53 AM69 °FSunny.9 mph36%30.09 "Hg10 mi
9:53 AM66 °FSunny.9 mph40%30.09 "Hg10 mi
8:53 AM62 °FSunny.10 mph50%30.08 "Hg10 mi
7:53 AM57 °FClear.8 mph60%30.06 "Hg10 mi
6:53 AM56 °FClear.8 mph60%30.05 "Hg10 mi
5:53 AM57 °FClear.8 mph60%30.03 "Hg10 mi
4:53 AM59 °FClear.5 mph54%30.02 "Hg10 mi
3:53 AM61 °FClear.3 mph50%30.01 "Hg10 mi
Weather by CustomWeather, © 2014

See weather overviewHow to use our weather pages